Orbital Elements at Epoch 2459200.5 (2020-Dec-17.0) TDB
Reference: JPL 23 (heliocentric ecliptic J2000)
Element | Value | Uncertainty (1-sigma) | Units |
e | .09471648456604805 | 4.2184e-08 | |
a | 2.769577762280083 | 1.7656e-08 | au |
q | 2.507253092904612 | 1.1915e-07 | au |
i | 5.250757438481394 | 4.3706e-06 | deg |
node | 129.8973056779537 | 5.0297e-05 | deg |
peri | 192.4951011670935 | 5.6163e-05 | deg |
M | 298.8955833109232 | 2.7538e-05 | deg |
tp | 2459486.251733651393 (2021-Sep-28.75173365) | 0.00012975 | TDB |
period | 1683.521907065207 4.61 | 1.6098e-05 4.407e-08 | d yr |
n | .2138374312144049 | 2.0448e-09 | deg/d |
Q | 3.031902431655555 | 1.9328e-08 | au |
|
| | Orbit Determination Parameters
Additional Information
|